Location: Unspecified
(29.9680°N, 0.0000°E)
Time: 16:11:07
(UTC+00:00)

Explorer 7 - Pass Details

Date: 27 June 2019
Orbit: 485 x 680 km, 50.3° (Epoch: 22 July)

Event Time Altitude Azimuth Distance (km) Brightness Sun altitude
Rises 12:28:44 0° 325° (NW) 2,929 10.5 81.2°
Reaches altitude 10° 12:31:24 10° 339° (NNW) 2,048 9.8 80.8°
Maximum altitude 12:35:16 24° 34° (NE) 1,354 9.1 80.2°
Drops below altitude 10° 12:39:14 10° 89° (E) 2,101 9.8 79.5°
Sets 12:42:00 0° 103° (ESE) 3,022 10.5 79.1°
